GSAT0203 (GALILEO 7)

Last updated on Thu Nov 21 2024 00:02:30 GMT+0000 (Coordinated Universal Time)

1 40544U 15017A 24325.53365815 -.00000096 00000+0 00000+0 0 9997 2 40544 56.9155 357.2182 0005985 259.2945 100.6872 1.70476103 59424
UTC large
Height (km)
Speed (km/s)
/
Latitude / Longitude
Inclination (degrees)
Orbital Period (minutes)
Azimuth
Elevation
Range (km)
Doppler Factor

Next 0 passes for location: London (51.5072 / 0.1276)

Sorry there are no passes over London.